IZ1CYF-13 Weather Reports


Display with metric or nautical units.
time (UTC)temp
F
wind
direction
speed
MPH
gust
MPH
rain 1hr
in
rain 24hr
in
rain mn
in
humidity
%
barometer
mb
20260508002951 70 0.0 0.0 0.00 0.00 0.00 46 1015.0
20260507233855 65 0.0 0.0 0.00 0.00 0.00 53 1015.7
20260507225905 63 0.0 0.0 0.00 0.00 0.00 57 1016.2
20260507204841 65 0.0 0.0 0.00 0.00 0.00 57 1015.3
20260507203841 68 0.0 0.0 0.00 0.00 0.00 53 1015.0
20260507202845 66 0.0 0.0 0.00 0.00 0.00 58 1015.2
20260507201845 65 0.0 0.0 0.00 0.00 0.00 60 1015.1
20260507200857 65 0.0 0.0 0.00 0.00 0.00 61 1015.1
20260507194846 65 0.0 0.0 0.00 0.00 0.00 58 1014.7
20260507194015 65 0.0 0.0 0.00 0.00 0.00 57 1014.5
20260507184841 65 0.0 0.0 0.00 0.00 0.00 58 1014.2
20260507183845 63 0.0 0.0 0.00 0.00 0.00 62 1014.4
20260507182847 66 0.0 0.0 0.00 0.00 0.00 53 1013.8
20260507181841 66 0.0 0.0 0.00 0.00 0.00 52 1013.6
20260507181018 72 0.0 0.0 0.00 0.00 0.00 45 1012.9
20260507174845 69 0.0 0.0 0.00 0.00 0.00 49 1013.0
20260507173845 68 0.0 0.0 0.00 0.00 0.00 51 1013.2
20260507172842 69 0.0 0.0 0.00 0.00 0.00 50 1013.0
20260507171858 69 0.0 0.0 0.00 0.00 0.00 47 1012.7
20260507170842 69 0.0 0.0 0.00 0.00 0.00 49 1013.0
20260507165845 70 0.0 0.0 0.00 0.00 0.00 47 1012.9
20260507164846 70 0.0 0.0 0.00 0.00 0.00 46 1012.8
20260507163913 67 0.0 0.0 0.00 0.00 0.00 49 1013.0
20260507162842 69 0.0 0.0 0.00 0.00 0.00 47 1012.9
20260507161842 72 0.0 0.0 0.00 0.00 0.00 40 1012.4
20260507160846 66 0.0 0.0 0.00 0.00 0.00 47 1013.1
20260507155842 69 0.0 0.0 0.00 0.00 0.00 43 1012.7
20260507154914 71 0.0 0.0 0.00 0.00 0.00 40 1012.3
20260507153842 70 0.0 0.0 0.00 0.00 0.00 41 1012.6
20260507152843 71 0.0 0.0 0.00 0.00 0.00 40 1012.4
20260507151943 73 0.0 0.0 0.00 0.00 0.00 39 1012.2
20260507145842 69 0.0 0.0 0.00 0.00 0.00 44 1013.0
20260507144845 67 0.0 0.0 0.00 0.00 0.00 46 1013.2
20260507143843 69 0.0 0.0 0.00 0.00 0.00 44 1012.9
20260507142843 68 0.0 0.0 0.00 0.00 0.00 44 1013.2
20260507141842 70 0.0 0.0 0.00 0.00 0.00 42 1012.8
20260507140843 70 0.0 0.0 0.00 0.00 0.00 42 1012.8
20260507135843 70 0.0 0.0 0.00 0.00 0.00 42 1013.0
20260507134843 67 0.0 0.0 0.00 0.00 0.00 46 1013.5
20260507133857 69 0.0 0.0 0.00 0.00 0.00 43 1013.5
20260507132858 71 0.0 0.0 0.00 0.00 0.00 40 1013.2
20260507131843 69 0.0 0.0 0.00 0.00 0.00 42 1013.5
20260507130843 70 0.0 0.0 0.00 0.00 0.00 41 1013.4
20260507125843 66 0.0 0.0 0.00 0.00 0.00 49 1014.1
20260507124842 67 0.0 0.0 0.00 0.00 0.00 47 1013.8
20260507123843 68 0.0 0.0 0.00 0.00 0.00 44 1013.9
20260507122842 64 0.0 0.0 0.00 0.00 0.00 48 1014.4
20260507121842 66 0.0 0.0 0.00 0.00 0.00 47 1014.2
20260507120857 69 0.0 0.0 0.00 0.00 0.00 43 1013.9
20260507115842 67 0.0 0.0 0.00 0.00 0.00 45 1014.1
20260507114912 69 0.0 0.0 0.00 0.00 0.00 44 1013.9
20260507113843 66 0.0 0.0 0.00 0.00 0.00 48 1014.5
20260507112843 70 0.0 0.0 0.00 0.00 0.00 44 1014.0
20260507111842 70 0.0 0.0 0.00 0.00 0.00 43 1014.1
20260507110842 62 0.0 0.0 0.00 0.00 0.00 54 1015.3
20260507105843 63 0.0 0.0 0.00 0.00 0.00 52 1015.3
20260507104842 64 0.0 0.0 0.00 0.00 0.00 52 1015.2
20260507103842 63 0.0 0.0 0.00 0.00 0.00 54 1015.6
20260507102915 63 0.0 0.0 0.00 0.00 0.00 52 1015.5
20260507101842 66 0.0 0.0 0.00 0.00 0.00 49 1015.2
20260507100849 66 0.0 0.0 0.00 0.00 0.00 49 1015.1
20260507095842 64 0.0 0.0 0.00 0.00 0.00 53 1015.4
20260507094843 67 0.0 0.0 0.00 0.00 0.00 49 1014.9
20260507093842 67 0.0 0.0 0.00 0.00 0.00 49 1014.9
20260507092842 64 0.0 0.0 0.00 0.00 0.00 53 1015.2
20260507091843 67 0.0 0.0 0.00 0.00 0.00 50 1014.7
20260507090843 65 0.0 0.0 0.00 0.00 0.00 52 1014.9
20260507085858 65 0.0 0.0 0.00 0.00 0.00 53 1014.9
20260507084843 67 0.0 0.0 0.00 0.00 0.00 49 1014.8
20260507083843 68 0.0 0.0 0.00 0.00 0.00 47 1014.3
20260507082844 67 0.0 0.0 0.00 0.00 0.00 49 1014.4
20260507081847 65 0.0 0.0 0.00 0.00 0.00 52 1014.8
20260507080913 67 0.0 0.0 0.00 0.00 0.00 48 1014.5
20260507073842 66 0.0 0.0 0.00 0.00 0.00 47 1014.5
20260507072844 66 0.0 0.0 0.00 0.00 0.00 47 1014.5
20260507071843 66 0.0 0.0 0.00 0.00 0.00 47 1014.4
20260507070843 65 0.0 0.0 0.00 0.00 0.00 48 1014.6
20260507065905 67 0.0 0.0 0.00 0.00 0.00 46 1014.4
20260507064930 67 0.0 0.0 0.00 0.00 0.00 45 1014.1
20260507062843 67 0.0 0.0 0.00 0.00 0.00 47 1014.2
20260507061847 67 0.0 0.0 0.00 0.00 0.00 44 1014.1
20260507060847 68 0.0 0.0 0.00 0.00 0.00 43 1013.9
20260507055847 67 0.0 0.0 0.00 0.00 0.00 46 1013.9
20260507054843 68 0.0 0.0 0.00 0.00 0.00 42 1013.6
20260507053858 66 0.0 0.0 0.00 0.00 0.00 45 1013.8
20260507052843 62 0.0 0.0 0.00 0.00 0.00 48 1014.2